www.pogodaiklimat.ru

Погода и климат >> Архив погоды >> Финляндия >> Эхтяри


ПОГОДА в Эхтяри

  • Прогноз погоды в Эхтяри
  • Монитор погоды в Эхтяри

АРХИВ ПОГОДЫ в Эхтяри

Время (UTC), дата Ветер
(напр.,м/с)
 
Видим.   Явления Облачность Т
(С)
Тd
(С)
f
(%)
Тe
(С)
Тes
(С)
Комфортность P
(гПа)
Po
(гПа)
Тmin
(С)
Tmax
(С)
R
(мм)
R24
(мм)
S
(см)
00 9.06 12 км 5/0
[]
+17.1 +16.8 98 1013.9 994.7
03 9.06 20 км 5/0 1000 м
[]
+18.3 +16.8 91 1012.6 993.5
06 9.06 20 км в посл. час дождь 9/8 200 м
[]
+16.6 +15.1 91 1013.2 994.0 +16.6 +19.7 3
09 9.06 20 км 5/0 600 м
[]
+18.3 +13.0 71 1014.9 995.8
12 9.06 20 км 5/0 1500 м
[]
+19.8 +8.1 47 1015.2 996.2
15 9.06 20 км 8/0 1500 м
[]
+20.4 +7.9 44 1014.8 995.8
18 9.06 20 км ясно +17.8 +5.9 46 1014.8 995.6 +15.9 +20.9
21 9.06 20 км 1/1 1500 м
[]
+15.0 +8.5 65 1014.9 995.6
00 10.06 20 км 10/9 600 м
[]
+14.4 +9.3 71 1014.4 995.0
03 10.06 20 км 9/0 600 м
[]
+13.7 +10.1 79 1014.1 994.7
06 10.06 20 км 8/8 600 м
[]
+13.8 +8.3 69 1014.7 995.2 +13.2 +17.8
09 10.06 20 км 10/0 600 м
[]
+14.1 +8.4 69 1015.3 995.9
12 10.06 20 км 9/0 600 м
[]
+15.3 +8.5 64 1016.1 996.7
15 10.06 20 км 9/0 1000 м
[]
+16.6 +8.3 58 1015.9 996.6
18 10.06 20 км 8/8 1000 м
[]
+16.1 +8.2 59 1016.7 997.3 +13.7 +17.4
21 10.06 20 км ясно +12.6 +8.0 74 1018.0 998.4
00 11.06 20 км 1/0 1500 м
[]
+10.7 +7.7 82 1019.3 999.5
03 11.06 20 км 9/0 2000 м
[]
+9.9 +7.7 86 1020.5 1000.7
06 11.06 20 км ясно +14.1 +9.0 71 1021.9 1002.4 +9.0 +16.1
09 11.06 20 км 1/0 1000 м
[]
+15.4 +7.0 57 1023.4 1003.9
12 11.06 20 км ясно +16.3 +5.5 49 1024.2 1004.8
15 11.06 20 км ясно +15.9 +2.4 40 1024.8 1005.3
18 11.06 20 км ясно +11.5 +2.5 54 1026.4 1006.6 +11.5 +17.1
21 11.06 20 км ясно +7.0 +1.8 69 1028.0 1007.8
00 12.06 20 км ясно +4.8 +1.9 81 1028.9 1008.6
03 12.06 20 км 9/0
[]
+5.8 +2.7 80 1029.2 1008.9
06 12.06 20 км 1/1 1000 м
[]
+9.5 +2.6 62 1029.1 1009.1 +4.0 +11.5
09 12.06 20 км 1/0 1000 м
[]
+13.0 +2.5 49 1029.3 1009.5
12 12.06 20 км ясно +15.2 +1.3 39 1027.9 1008.3
15 12.06 20 км ясно +16.3 +2.8 40 1026.5 1007.0
18 12.06 20 км 3/0
[]
+13.8 +4.1 52 1026.4 1006.8 +9.3 +16.6
21 12.06 20 км 9/0
[]
+10.1 +3.3 63 1026.8 1006.9
00 13.06 20 км 10/0
[]
+9.1 +2.8 65 1026.7 1006.7
03 13.06 20 км 10/0
[]
+9.6 +3.7 67 1025.4 1005.5
06 13.06 20 км в посл. час дождь 10/10
[]
+10.5 +3.7 63 1024.0 1004.2 +8.4 +13.8
09 13.06 20 км 10/0
[]
+11.4 +4.3 62 1023.7 1003.9
12 13.06 20 км 10/0 1000 м
[]
+13.0 +4.8 57 1022.0 1002.3
15 13.06 20 км 10/0 1000 м
[]
+16.5 +7.9 57 1019.1 999.8
18 13.06 20 км 10/10 600 м
[]
+15.9 +9.1 64 1018.3 998.9 +10.3 +16.8
21 13.06 20 км 10/0 600 м
[]
+13.4 +8.7 73 1018.7 999.1
00 14.06 20 км 10/0 600 м
[]
+12.5 +7.0 69 1018.0 998.4
03 14.06 20 км 10/0 600 м
[]
+11.9 +7.3 73 1017.2 997.5
06 14.06 20 км 10/10 600 м
[]
+13.8 +9.0 73 1017.1 997.6 +11.9 +15.9
09 14.06 20 км 10/0 1000 м
[]
+15.1 +9.7 70 1017.0 997.6
12 14.06 20 км 10/0 600 м
[]
+15.8 +10.7 72 1016.8 997.4
15 14.06 20 км 10/0 300 м
[]
+14.2 +10.4 78 1015.9 996.4
18 14.06 14 км в посл. час осадки 10/10 200 м
[]
+12.4 +11.7 95 1015.0 995.5 +12.4 +16.3 0.1
21 14.06 3300 м слаб. морось 10/0 100 м
[]
+11.9 +11.5 97 1014.6 995.1 0.3
00 15.06 2300 м слаб. ливневой дождь 10/0 50 м
[]
+12.3 +12.0 98 1013.9 994.3 0.1
03 15.06 2100 м морось 10/10 50 м
[]
+12.2 +12.0 99 1014.4 994.9 0.1
06 15.06 4700 м слаб. ливневой дождь 10/10 100 м
[]
+10.4 +10.0 97 1015.5 995.8 +10.2 +12.6 2
09 15.06 20 км 10/10 600 м
[]
+12.4 +10.5 88 1016.1 996.5
12 15.06 20 км 9/5 300 м
[]
+15.7 +11.6 77 1016.4 997.0
15 15.06 20 км 9/1 600 м
[]
+17.7 +11.5 67 1016.1 996.9
18 15.06 20 км ясно +17.2 +11.5 69 1016.0 996.8 +10.4 +18.5
21 15.06 20 км ясно +12.0 +10.9 93 1016.1 996.5

 

Местоположение метеостанции Эхтяри (Финляндия): широта 62.53 долгота 24.22 высота над уровнем моря 159 м.

В архиве по умолчанию представлена погода в Эхтяри за последнюю неделю. Архивные данные за месяц целиком и за предыдущие месяцы, начиная с января 2011 года, Вы можете получить, выбрав интересующий диапазон дат из раскрывающегося списка и нажав кнопку "Ввод!".


*Определитесь, кто Вы:
робот инопланетянин человек

Внимание! Время в таблицах - всемирное. Для получения местного времени необходимо прибавить поправку, которая равна 1 ч.

Смотрите также архив погоды в соседних городах и на ближайших метеорологических станциях:

Погода в Мультия Кархила (Финляндия) (30 км)
Погода в Виррат Айяннева (Финляндия) (41 км)
Погода в Алаярви Моксы (Финляндия) (62 км)
Погода в Халли (Финляндия) (75 км)
Погода в Юупайоки Хююеяля (Финляндия) (76 км)
Погода в Ювяскюля (Финляндия) (76 км)
Погода в Аэропорту Халли (Финляндия) (80 км)
Погода в Карвиа Алккиа (Финляндия) (87 км)
Погода в Каухаве (Финляндия) (90 км)
Погода в Йлистаро Пелма (Финляндия) (99 км)

Пояснения к столбцам:

Ветер - указаны скорость ветра в м/с - средняя за 10 мин, порывы в срок и между сроками (в фигурных скобках) и направление, откуда дует ветер: С - северный, СВ - северо-восточный, В - восточный, ЮВ - юго-восточный, Ю - южный, ЮЗ - юго-западный, З - западный, СЗ - северо-западный.
Видимость - горизонтальная дальность видимости в метрах или километрах. При видимости от 1 до 10 км при отсутствии осадков обычно наблюдается дымка, при ухудшении видимости до 1 км и менее - туман. В сухую погоду видимость может ухудшаться дымом, пылью или мглою.
Явления - указаны атмосферные явления, наблюдавшиеся в срок или в последний час перед сроком; фигурными скобками обозначены явления, наблюдавшиеся между сроками (за 1-3 часа до срока); квадратными скобками обозначены град или гололедные отложения с указанием их диаметра в мм.
Облачность - указаны через наклонную черту общая и нижняя облачность в баллах и высота нижней границы облаков в метрах; квадратными скобками обозначены формы облаков: Ci - перистые, Cs - перисто-слоистые, Cc - перисто-кучевые, Ac - высококучевые, As - высокослоистые, Sc - слоисто-кучевые, Ns - слоисто-дождевые, Cu - кучевые, Cb - кучево-дождевые. Подробнее классификацию облаков см. в Атласе облаков (PDF).
T - Температура воздуха - температура, измеренная на высоте 2 м над землей.
Td - Температура точки росы - температура, при понижении до которой содержащийся в воздухе водяной пар достигнет насыщения.
f - Относительная влажность воздуха - влажноcть воздуха, измеренная на высоте 2 м над землей.
Te - Эффективная температура - температура, которую ощущает одетый по сезону человек в тени. Характеристика душности погоды. При расчете учитывается влияние влажности воздуха и скорости ветра на теплоощущения человека.
Tes - Эффективная температура на солнце - температура, которую ощущает человек, с поправкой на солнечный нагрев. Характеристика знойности погоды. Зависит от высоты солнца над горизонтом, облачности и скорости ветра. Ночью, в пасмурную погоду, а также при ветре 12 м/с и более поправка равна нулю.
P - Атмосферное давление - приведенное к уровню моря атмосферное давление.
Po - Атмосферное давление - измеренное на уровне метеостанции атмосферное давление.
Tmin - Минимальная температура - минимум температуры воздуха на высоте 2 м над землей.
Tmax - Максимальная температура - максимум температуры воздуха на высоте 2 м над землей.
R - Количество осадков - Количество выпавших осадков за период времени, мм. При наведении курсора мыши на число - период времени, за который выпало указанное количество осадков.
R24 - Количество осадков - Количество выпавших осадков за 24 часа, мм.
S - Снежный покров - Высота снежного покрова, см. При наведении курсора мыши на число - состояние снежного покрова и степень покрытия местности в баллах.